| time (UTC) | temp C | wind direction | speed KPH | gust KPH | rain 1hr cm | rain 24hr cm | rain mn cm | humidity % | barometer mb |
| 20260903112433 | 17 | 245 | 0.0 | 4.8 | 0.05 | 0.38 | 0.38 | 96 | 1014.7 |
| 20260903111932 | 17 | 240 | 0.0 | 3.2 | 0.00 | 0.38 | 0.38 | 96 | 1014.4 |
| 20260903111427 | 17 | 219 | 0.0 | 3.2 | 0.00 | 0.38 | 0.38 | 96 | 1014.6 |
| 20260903110924 | 17 | 206 | 0.0 | 3.2 | 0.00 | 0.38 | 0.38 | 96 | 1014.7 |
| 20260903110419 | 17 | 151 | 0.0 | 1.6 | 0.00 | 0.38 | 0.38 | 96 | 1014.6 |
| 20260903105914 | 17 | 177 | 0.0 | 1.6 | 0.00 | 0.38 | 0.38 | 96 | 1014.2 |
| 20260903105409 | 17 | 260 | 0.0 | 0.0 | 0.00 | 0.38 | 0.38 | 96 | 1014.4 |
| 20260903104908 | 17 | 233 | 0.0 | 1.6 | 0.00 | 0.38 | 0.38 | 96 | 1014.4 |
| 20260903104403 | 17 | 222 | 0.0 | 3.2 | 0.00 | 0.38 | 0.38 | 96 | 1014.8 |
| 20260903103900 | 17 | 209 | 3.2 | 4.8 | 0.00 | 0.38 | 0.38 | 96 | 1014.6 |
| 20260903103355 | 17 | 225 | 0.0 | 3.2 | 0.00 | 0.38 | 0.38 | 96 | 1014.6 |
| 20260903102850 | 17 | 129 | 0.0 | 1.6 | 0.00 | 0.38 | 0.38 | 96 | 1014.7 |
| 20260903102345 | 17 | 212 | 0.0 | 1.6 | 0.00 | 0.38 | 0.38 | 96 | 1014.6 |
| 20260903101844 | 17 | 316 | 0.0 | 1.6 | 0.00 | 0.38 | 0.38 | 96 | 1014.7 |
| 20260903101334 | 17 | 50 | 0.0 | 1.6 | 0.00 | 0.38 | 0.38 | 96 | 1014.6 |
| 20260903100830 | 17 | 89 | 0.0 | 1.6 | 0.00 | 0.38 | 0.38 | 96 | 1014.6 |
| 20260903100330 | 17 | 240 | 0.0 | 1.6 | 0.00 | 0.38 | 0.38 | 96 | 1014.9 |
| 20260903095826 | 17 | 159 | 0.0 | 3.2 | 0.00 | 0.38 | 0.38 | 96 | 1014.8 |
| 20260903095321 | 17 | 265 | 0.0 | 1.6 | 0.00 | 0.38 | 0.38 | 96 | 1014.9 |
| 20260903094816 | 17 | 230 | 0.0 | 3.2 | 0.00 | 0.38 | 0.38 | 96 | 1014.8 |
| 20260903094311 | 17 | 226 | 0.0 | 3.2 | 0.00 | 0.38 | 0.38 | 96 | 1014.7 |
| 20260903093807 | 17 | 233 | 1.6 | 3.2 | 0.00 | 0.38 | 0.38 | 96 | 1014.9 |
| 20260903093301 | 17 | 130 | 1.6 | 4.8 | 0.00 | 0.38 | 0.38 | 96 | 1014.8 |
| 20260903092756 | 17 | 166 | 0.0 | 4.8 | 0.00 | 0.38 | 0.38 | 96 | 1014.7 |
| 20260903092251 | 17 | 267 | 1.6 | 3.2 | 0.00 | 0.38 | 0.38 | 96 | 1014.9 |
| 20260903091750 | 17 | 269 | 0.0 | 3.2 | 0.00 | 0.38 | 0.38 | 96 | 1015.1 |
| 20260903091244 | 17 | 203 | 1.6 | 3.2 | 0.05 | 0.38 | 0.38 | 96 | 1015.1 |
| 20260903090740 | 17 | 235 | 0.0 | 1.6 | 0.05 | 0.38 | 0.38 | 96 | 1015.0 |
| 20260903090239 | 17 | 325 | 0.0 | 3.2 | 0.00 | 0.36 | 0.36 | 96 | 1015.0 |
| 20260903085737 | 17 | 335 | 0.0 | 3.2 | 0.00 | 0.36 | 0.36 | 96 | 1014.9 |
| 20260903085233 | 17 | 117 | 1.6 | 6.4 | 0.00 | 0.36 | 0.36 | 96 | 1014.8 |
| 20260903084730 | 17 | 237 | 0.0 | 3.2 | 0.00 | 0.36 | 0.36 | 96 | 1014.6 |
| 20260903084226 | 17 | 202 | 0.0 | 1.6 | 0.00 | 0.36 | 0.36 | 96 | 1014.6 |
| 20260903083721 | 17 | 186 | 0.0 | 1.6 | 0.00 | 0.36 | 0.36 | 96 | 1014.4 |
| 20260903083221 | 17 | 322 | 0.0 | 1.6 | 0.00 | 0.36 | 0.36 | 96 | 1014.3 |
| 20260903082714 | 17 | 150 | 0.0 | 3.2 | 0.00 | 0.36 | 0.36 | 96 | 1014.8 |
| 20260903082211 | 17 | 142 | 0.0 | 1.6 | 0.00 | 0.36 | 0.36 | 96 | 1014.7 |
| 20260903081710 | 17 | 129 | 0.0 | 1.6 | 0.00 | 0.36 | 0.36 | 96 | 1014.6 |
| 20260903081206 | 17 | 315 | 0.0 | 3.2 | 0.00 | 0.36 | 0.36 | 96 | 1014.8 |
| 20260903080703 | 17 | 214 | 0.0 | 4.8 | 0.00 | 0.36 | 0.36 | 96 | 1015.0 |
| 20260903080200 | 17 | 227 | 1.6 | 3.2 | 0.13 | 0.36 | 0.36 | 96 | 1014.6 |
| 20260903075659 | 17 | 217 | 0.0 | 1.6 | 0.13 | 0.36 | 0.36 | 96 | 1014.6 |
| 20260903075154 | 17 | 142 | 0.0 | 1.6 | 0.00 | 0.33 | 0.33 | 96 | 1014.7 |
| 20260903074653 | 17 | 326 | 0.0 | 1.6 | 0.00 | 0.33 | 0.33 | 96 | 1014.9 |
| 20260903074149 | 17 | 230 | 0.0 | 1.6 | 0.00 | 0.33 | 0.33 | 96 | 1014.7 |
| 20260903073644 | 17 | 194 | 0.0 | 1.6 | 0.00 | 0.33 | 0.33 | 96 | 1014.8 |
| 20260903073139 | 17 | 193 | 0.0 | 1.6 | 0.00 | 0.33 | 0.33 | 96 | 1015.2 |
| 20260903072634 | 17 | 321 | 1.6 | 1.6 | 0.00 | 0.33 | 0.33 | 96 | 1015.0 |
| 20260903072131 | 17 | 230 | 0.0 | 0.0 | 0.00 | 0.33 | 0.33 | 96 | 1014.7 |
| 20260903071627 | 17 | 186 | 0.0 | 1.6 | 0.00 | 0.33 | 0.33 | 96 | 1014.6 |
| 20260903071123 | 17 | 246 | 3.2 | 3.2 | 0.00 | 0.33 | 0.33 | 96 | 1014.9 |
| 20260903070622 | 17 | 329 | 0.0 | 1.6 | 0.00 | 0.33 | 0.33 | 96 | 1014.9 |
| 20260903070118 | 17 | 343 | 0.0 | 3.2 | 0.00 | 0.33 | 0.33 | 96 | 1014.8 |
| 20260903065618 | 17 | 37 | 0.0 | 3.2 | 0.00 | 0.33 | 0.33 | 96 | 1014.9 |
| 20260903065118 | 17 | 209 | 0.0 | 6.4 | 0.00 | 0.33 | 0.33 | 96 | 1015.1 |
| 20260903064612 | 17 | 154 | 4.8 | 6.4 | 0.00 | 0.33 | 0.33 | 96 | 1015.2 |
| 20260903064107 | 17 | 160 | 1.6 | 9.7 | 0.00 | 0.33 | 0.33 | 96 | 1014.4 |
| 20260903063603 | 17 | 219 | 1.6 | 3.2 | 0.00 | 0.33 | 0.33 | 96 | 1014.9 |
| 20260903063058 | 17 | 219 | 1.6 | 3.2 | 0.00 | 0.33 | 0.33 | 96 | 1014.9 |
| 20260903062553 | 17 | 315 | 0.0 | 0.0 | 0.00 | 0.33 | 0.33 | 96 | 1015.3 |
| 20260903062049 | 17 | 315 | 0.0 | 3.2 | 0.00 | 0.33 | 0.33 | 96 | 1015.2 |
| 20260903061543 | 17 | 148 | 0.0 | 3.2 | 0.00 | 0.33 | 0.33 | 96 | 1015.2 |
| 20260903061038 | 17 | 212 | 0.0 | 1.6 | 0.00 | 0.33 | 0.33 | 96 | 1015.2 |
| 20260903060537 | 17 | 230 | 0.0 | 1.6 | 0.00 | 0.33 | 0.33 | 96 | 1015.6 |
| 20260903060033 | 17 | 230 | 0.0 | 0.0 | 0.00 | 0.33 | 0.33 | 96 | 1015.7 |
| 20260903055530 | 17 | 212 | 0.0 | 1.6 | 0.00 | 0.33 | 0.33 | 96 | 1015.8 |
| 20260903055029 | 17 | 309 | 0.0 | 0.0 | 0.00 | 0.33 | 0.33 | 96 | 1015.5 |
| 20260903054524 | 17 | 17 | 0.0 | 1.6 | 0.00 | 0.33 | 0.33 | 96 | 1015.5 |
| 20260903054020 | 17 | 292 | 1.6 | 8.0 | 0.00 | 0.33 | 0.33 | 96 | 1015.3 |
| 20260903053520 | 17 | 142 | 0.0 | 4.8 | 0.00 | 0.33 | 0.33 | 96 | 1015.1 |
| 20260903053017 | 17 | 240 | 0.0 | 8.0 | 0.00 | 0.33 | 0.33 | 96 | |
| 20260903052512 | 18 | 234 | 3.2 | 6.4 | 0.00 | 0.33 | 0.33 | 96 | |
| 20260903052008 | 18 | 116 | 0.0 | 4.8 | 0.00 | 0.33 | 0.33 | 96 | |
| 20260903051502 | 18 | 190 | 4.8 | 11.3 | 0.00 | 0.33 | 0.33 | 96 | |
| 20260903050958 | 18 | 249 | 1.6 | 11.3 | 0.00 | 0.33 | 0.33 | 96 | |
| 20260903050456 | 18 | 150 | 3.2 | 6.4 | 0.05 | 0.33 | 0.33 | 96 | |
| 20260903045951 | 18 | 243 | 1.6 | 9.7 | 0.05 | 0.33 | 0.33 | 96 | |
| 20260903045447 | 18 | 220 | 0.0 | 8.0 | 0.05 | 0.33 | 0.33 | 96 | |
| 20260903044943 | 18 | 304 | 3.2 | 11.3 | 0.18 | 0.33 | 0.33 | 96 | |
| 20260903044439 | 18 | 212 | 4.8 | 11.3 | 0.36 | 0.30 | 0.30 | 96 | |
| 20260903043935 | 18 | 247 | 4.8 | 9.7 | 0.36 | 0.30 | 0.30 | 96 | |
| 20260903043430 | 18 | 89 | 0.0 | 8.0 | 0.36 | 0.28 | 0.28 | 96 | |
| 20260903042928 | 18 | 205 | 4.8 | 9.7 | 0.43 | 0.23 | 0.23 | 96 | |
| 20260903042424 | 18 | 229 | 1.6 | 12.9 | 0.61 | 0.20 | 0.20 | 96 | |
| 20260903041920 | 18 | 265 | 0.0 | 8.0 | 0.61 | 0.15 | 0.15 | 96 | |
| 20260903041416 | 18 | 174 | 4.8 | 8.0 | 0.48 | 0.10 | 0.10 | 96 | |
| 20260903040912 | 18 | 169 | 3.2 | 8.0 | 0.30 | 0.05 | 0.05 | 96 | |
| 20260903040411 | 18 | 272 | 1.6 | 8.0 | 0.43 | 0.00 | 0.00 | 96 | |
| 20260903035907 | 18 | 175 | 3.2 | 9.7 | 0.66 | 2.31 | 2.31 | 96 | |
| 20260903035402 | 18 | 290 | 3.2 | 12.9 | 0.43 | 2.26 | 2.26 | 96 | |
| 20260903034857 | 18 | 288 | 6.4 | 22.5 | 0.18 | 2.21 | 2.21 | 96 | |
| 20260903034352 | 18 | 265 | 6.4 | 16.1 | 0.05 | 2.18 | 2.18 | 96 | |
| 20260903033847 | 18 | 258 | 1.6 | 4.8 | 0.13 | 2.18 | 2.18 | 96 | |
| 20260903033342 | 18 | 208 | 3.2 | 4.8 | 0.23 | 2.16 | 2.16 | 96 | |
| 20260903032842 | 19 | 168 | 4.8 | 8.0 | 0.30 | 2.16 | 2.16 | 96 | |
| 20260903032338 | 19 | 214 | 1.6 | 4.8 | 0.36 | 2.11 | 2.11 | 96 | |
| 20260903031828 | 19 | 224 | 4.8 | 8.0 | 0.43 | 2.11 | 2.11 | 96 | |
| 20260903031327 | 19 | 225 | 3.2 | 11.3 | 0.36 | 2.06 | 2.06 | 96 | |
| 20260903030823 | 19 | 199 | 4.8 | 8.0 | 0.36 | 2.03 | 2.03 | 96 | |
| 20260903030319 | 19 | 244 | 3.2 | 6.4 | 0.61 | 1.98 | 1.98 | 96 | |
| 20260903025814 | 19 | 233 | 3.2 | 11.3 | 0.66 | 1.96 | 1.96 | 96 | |
| 20260903025310 | 19 | 231 | 3.2 | 6.4 | 0.66 | 1.91 | 1.91 | 96 | |
| 20260903024804 | 18 | 49 | 0.0 | 8.0 | 0.53 | 1.83 | 1.83 | 96 | |
| 20260903024304 | 18 | 154 | 0.0 | 14.5 | 0.66 | 1.78 | 1.78 | 96 | |
| 20260903023759 | 18 | 76 | 3.2 | 9.7 | 0.66 | 1.75 | 1.75 | 96 | |
| 20260903023254 | 18 | 42 | 3.2 | 14.5 | 0.61 | 1.68 | 1.68 | 96 | |
| 20260903022749 | 18 | 152 | 4.8 | 11.3 | 0.53 | 1.63 | 1.63 | 96 | |
| 20260903022248 | 17 | 240 | 3.2 | 8.0 | 0.36 | 1.55 | 1.55 | 96 | |
| 20260903021747 | 17 | 143 | 3.2 | 8.0 | 0.36 | 1.52 | 1.52 | 96 | |
| 20260903021243 | 17 | 224 | 8.0 | 12.9 | 0.36 | 1.50 | 1.50 | 96 | |
| 20260903020743 | 17 | 29 | 0.0 | 6.4 | 1.85 | 1.47 | 1.47 | 96 | |
| 20260903020237 | 18 | 248 | 12.9 | 25.7 | 4.37 | 1.32 | 1.32 | 96 | |
| 20260903015733 | 18 | 269 | 6.4 | 24.1 | 3.48 | 1.17 | 1.17 | 96 | |
| 20260903015228 | 19 | 303 | 0.0 | 16.1 | 0.71 | 0.71 | 0.71 | 96 | |
| 20260903014723 | 20 | 356 | 4.8 | 8.0 | 0.00 | 0.58 | 0.58 | 96 | |
| 20260903014223 | 20 | 223 | 1.6 | 6.4 | 0.00 | 0.58 | 0.58 | 96 | |
| 20260903013718 | 20 | 234 | 3.2 | 8.0 | 0.00 | 0.58 | 0.58 | 96 | |
| 20260903013217 | 20 | 246 | 3.2 | 9.7 | 0.05 | 0.58 | 0.58 | 96 | |
| 20260903012716 | 20 | 190 | 3.2 | 6.4 | 0.18 | 0.58 | 0.58 | 96 | |
| 20260903012216 | 20 | 148 | 3.2 | 9.7 | 0.18 | 0.56 | 0.56 | 96 | |
| 20260903011710 | 20 | 148 | 3.2 | 8.0 | 0.05 | 0.56 | 0.56 | 96 | |
| 20260903011204 | 20 | 247 | 3.2 | 8.0 | 0.00 | 0.53 | 0.53 | 96 | |
| 20260903010700 | 20 | 133 | 4.8 | 9.7 | 0.00 | 0.53 | 0.53 | 96 | |
| 20260903010159 | 20 | 187 | 1.6 | 6.4 | 0.00 | 0.53 | 0.53 | 96 | |
| 20260903005658 | 20 | 238 | 4.8 | 6.4 | 0.00 | 0.53 | 0.53 | 96 | |
| 20260903005154 | 20 | 176 | 3.2 | 8.0 | 0.00 | 0.53 | 0.53 | 96 | |
| 20260903004649 | 20 | 197 | 3.2 | 12.9 | 0.13 | 0.53 | 0.53 | 96 | |
| 20260903004144 | 20 | 213 | 3.2 | 4.8 | 0.18 | 0.53 | 0.53 | 96 | |
| 20260903003640 | 20 | 138 | 4.8 | 11.3 | 0.05 | 0.51 | 0.51 | 96 | |
| 20260903003135 | 20 | 53 | 3.2 | 8.0 | 0.00 | 0.51 | 0.51 | 96 | |
| 20260903002630 | 20 | 153 | 6.4 | 9.7 | 0.00 | 0.51 | 0.51 | 96 | |
| 20260903002124 | 20 | 217 | 6.4 | 9.7 | 0.00 | 0.51 | 0.51 | 96 | |
| 20260903001619 | 20 | 135 | 0.0 | 12.9 | 0.00 | 0.51 | 0.51 | 96 | |
| 20260903001113 | 20 | 248 | 1.6 | 4.8 | 0.00 | 0.51 | 0.51 | 96 | |
| 20260903000609 | 20 | 236 | 3.2 | 6.4 | 0.00 | 0.51 | 0.51 | 96 | |
| 20260903000108 | 20 | 253 | 0.0 | 9.7 | 0.00 | 0.51 | 0.51 | 96 | |
| 20260902235607 | 20 | 199 | 4.8 | 11.3 | 0.00 | 0.51 | 0.51 | 96 | |
| 20260902235102 | 20 | 231 | 4.8 | 9.7 | 0.00 | 0.51 | 0.51 | 96 | |
| 20260902234556 | 20 | 206 | 3.2 | 8.0 | 0.00 | 0.51 | 0.51 | 96 | |
| 20260902234055 | 20 | 137 | 4.8 | 9.7 | 0.00 | 0.51 | 0.51 | 96 | |
| 20260902233550 | 20 | 153 | 3.2 | 8.0 | 0.00 | 0.51 | 0.51 | 96 | |
| 20260902233044 | 20 | 231 | 0.0 | 6.4 | 0.00 | 0.51 | 0.51 | 96 | |
| 20260902232544 | 20 | 251 | 1.6 | 4.8 | 0.00 | 0.51 | 0.51 | 96 | |
| 20260902232038 | 20 | 235 | 0.0 | 4.8 | 0.00 | 0.51 | 0.51 | 96 | |
| 20260902231533 | 20 | 199 | 1.6 | 6.4 | 0.00 | 0.51 | 0.51 | 96 | |
| 20260902231032 | 20 | 306 | 0.0 | 6.4 | 0.00 | 0.51 | 0.51 | 96 | |
| 20260902230527 | 20 | 227 | 4.8 | 6.4 | 0.00 | 0.51 | 0.51 | 96 | |
| 20260902230027 | 20 | 175 | 1.6 | 6.4 | 0.00 | 0.51 | 0.51 | 96 | |
| 20260902225522 | 20 | 76 | 0.0 | 6.4 | 0.00 | 0.51 | 0.51 | 96 | |
| 20260902225021 | 20 | 171 | 4.8 | 6.4 | 0.00 | 0.51 | 0.51 | 96 | |
| 20260902224520 | 21 | 147 | 3.2 | 8.0 | 0.00 | 0.51 | 0.51 | 96 | |
| 20260902224017 | 21 | 252 | 3.2 | 9.7 | 0.00 | 0.51 | 0.51 | 96 | |
| 20260902223512 | 21 | 128 | 6.4 | 8.0 | 0.00 | 0.51 | 0.51 | 96 | |
| 20260902223006 | 21 | 191 | 0.0 | 9.7 | 0.00 | 0.51 | 0.51 | 96 | |
| 20260902222505 | 21 | 222 | 3.2 | 11.3 | 0.00 | 0.51 | 0.51 | 96 | |
| 20260902222004 | 21 | 224 | 0.0 | 8.0 | 0.00 | 0.51 | 0.51 | 96 | |
| 20260902221503 | 21 | 201 | 4.8 | 8.0 | 0.00 | 0.51 | 0.51 | 96 | |
| 20260902220954 | 21 | 235 | 1.6 | 9.7 | 0.00 | 0.51 | 0.51 | 96 | |
| 20260902220454 | 21 | 256 | 4.8 | 8.0 | 0.00 | 0.51 | 0.51 | 96 | |
| 20260902215948 | 21 | 155 | 1.6 | 4.8 | 0.00 | 0.51 | 0.51 | 96 | |
| 20260902215444 | 21 | 231 | 3.2 | 6.4 | 0.00 | 0.51 | 0.51 | 96 | |
| 20260902214940 | 21 | 209 | 4.8 | 8.0 | 0.00 | 0.51 | 0.51 | 96 | |
| 20260902214438 | 21 | 104 | 4.8 | 9.7 | 0.00 | 0.51 | 0.51 | 96 | |
| 20260902213933 | 21 | 125 | 3.2 | 8.0 | 0.00 | 0.51 | 0.51 | 96 | |
| 20260902213429 | 21 | 103 | 4.8 | 6.4 | 0.00 | 0.51 | 0.51 | 96 | |
| 20260902212928 | 21 | 118 | 1.6 | 4.8 | 0.00 | 0.51 | 0.51 | 96 | |
| 20260902212424 | 21 | 191 | 1.6 | 4.8 | 0.00 | 0.51 | 0.51 | 96 | |
| 20260902211920 | 21 | 230 | 0.0 | 3.2 | 0.00 | 0.51 | 0.51 | 96 | |
| 20260902211416 | 21 | 171 | 1.6 | 4.8 | 0.00 | 0.51 | 0.51 | 96 | |
| 20260902210911 | 21 | 224 | 3.2 | 4.8 | 0.00 | 0.51 | 0.51 | 96 | |
| 20260902210410 | 21 | 304 | 3.2 | 8.0 | 0.00 | 0.51 | 0.51 | 96 | |
| 20260902205909 | 21 | 189 | 0.0 | 8.0 | 0.00 | 0.51 | 0.51 | 96 | |
| 20260902205404 | 21 | 289 | 3.2 | 4.8 | 0.00 | 0.51 | 0.51 | 96 | |
| 20260902204900 | 21 | 213 | 3.2 | 6.4 | 0.00 | 0.51 | 0.51 | 96 | |
| 20260902204359 | 21 | 169 | 1.6 | 9.7 | 0.00 | 0.51 | 0.51 | 96 | |
| 20260902203855 | 21 | 202 | 4.8 | 12.9 | 0.00 | 0.51 | 0.51 | 96 | |
| 20260902203350 | 21 | 246 | 1.6 | 6.4 | 0.00 | 0.51 | 0.51 | 96 | |
| 20260902202844 | 21 | 110 | 0.0 | 6.4 | 0.00 | 0.51 | 0.51 | 96 | |
| 20260902202340 | 21 | 229 | 0.0 | 4.8 | 0.00 | 0.51 | 0.51 | 96 | |
| 20260902201837 | 20 | 162 | 1.6 | 4.8 | 0.00 | 0.51 | 0.51 | 96 | |
| 20260902201336 | 20 | 225 | 0.0 | 6.4 | 0.00 | 0.51 | 0.51 | 96 | |
| 20260902200832 | 20 | 237 | 3.2 | 8.0 | 0.00 | 0.51 | 0.51 | 96 | |
| 20260902200326 | 20 | 336 | 0.0 | 14.5 | 0.00 | 0.51 | 0.51 | 96 | |
| 20260902195822 | 20 | 169 | 3.2 | 8.0 | 0.00 | 0.51 | 0.51 | 96 | |
| 20260902195321 | 20 | 251 | 3.2 | 4.8 | 0.00 | 0.51 | 0.51 | 96 | |
| 20260902194816 | 20 | 80 | 0.0 | 9.7 | 0.00 | 0.51 | 0.51 | 96 | |
| 20260902194311 | 20 | 160 | 1.6 | 4.8 | 0.00 | 0.51 | 0.51 | 96 | |
| 20260902193807 | 20 | 333 | 0.0 | 3.2 | 0.00 | 0.51 | 0.51 | 96 | |
| 20260902193302 | 20 | 222 | 4.8 | 4.8 | 0.00 | 0.51 | 0.51 | 96 | |
| 20260902192801 | 20 | 13 | 0.0 | 8.0 | 0.00 | 0.51 | 0.51 | 96 | |
| 20260902192300 | 20 | 221 | 3.2 | 9.7 | 0.00 | 0.51 | 0.51 | 96 | |
| 20260902191759 | 20 | 186 | 1.6 | 6.4 | 0.00 | 0.51 | 0.51 | 96 | |
| 20260902191255 | 20 | 216 | 0.0 | 6.4 | 0.00 | 0.51 | 0.51 | 96 | |
| 20260902190750 | 20 | 149 | 0.0 | 8.0 | 0.00 | 0.51 | 0.51 | 96 | |
| 20260902190249 | 20 | 139 | 0.0 | 8.0 | 0.00 | 0.51 | 0.51 | 96 | |
| 20260902185745 | 20 | 259 | 0.0 | 4.8 | 0.00 | 0.51 | 0.51 | 96 | |
| 20260902185241 | 20 | 141 | 3.2 | 4.8 | 0.00 | 0.51 | 0.51 | 96 | |
| 20260902184737 | 20 | 260 | 3.2 | 4.8 | 0.00 | 0.51 | 0.51 | 96 | |
| 20260902184232 | 20 | 119 | 1.6 | 6.4 | 0.00 | 0.51 | 0.51 | 96 | |
| 20260902183727 | 20 | 288 | 4.8 | 4.8 | 0.00 | 0.51 | 0.51 | 96 | |
| 20260902183224 | 20 | 144 | 4.8 | 11.3 | 0.00 | 0.51 | 0.51 | 96 | |
| 20260902182720 | 20 | 241 | 0.0 | 4.8 | 0.00 | 0.51 | 0.51 | 96 | |
| 20260902182216 | 20 | 0 | 0.0 | 6.4 | 0.00 | 0.51 | 0.51 | 96 | |
| 20260902181712 | 20 | 234 | 3.2 | 8.0 | 0.00 | 0.51 | 0.51 | 96 | |
| 20260902181211 | 20 | 219 | 3.2 | 8.0 | 0.00 | 0.51 | 0.51 | 96 | |
| 20260902180706 | 20 | 164 | 6.4 | 14.5 | 0.00 | 0.51 | 0.51 | 96 | |
| 20260902180201 | 20 | 352 | 0.0 | 12.9 | 0.00 | 0.51 | 0.51 | 96 | |
| 20260902175702 | 20 | 244 | 0.0 | 6.4 | 0.00 | 0.51 | 0.51 | 96 | |
| 20260902175158 | 20 | 314 | 3.2 | 4.8 | 0.00 | 0.51 | 0.51 | 96 | |
| 20260902174654 | 19 | 269 | 0.0 | 8.0 | 0.00 | 0.51 | 0.51 | 96 | |
| 20260902174149 | 19 | 236 | 3.2 | 11.3 | 0.00 | 0.51 | 0.51 | 96 | |
| 20260902173644 | 19 | 101 | 3.2 | 11.3 | 0.00 | 0.51 | 0.51 | 96 | |
| 20260902173139 | 19 | 228 | 4.8 | 9.7 | 0.00 | 0.51 | 0.51 | 96 | |
| 20260902172633 | 19 | 227 | 1.6 | 6.4 | 0.00 | 0.51 | 0.51 | 96 | |
| 20260902172132 | 19 | 205 | 1.6 | 14.5 | 0.00 | 0.51 | 0.51 | 96 | |
| 20260902171628 | 19 | 295 | 3.2 | 6.4 | 0.00 | 0.51 | 0.51 | 96 | |
| 20260902171124 | 20 | 202 | 1.6 | 8.0 | 0.00 | 0.51 | 0.51 | 96 | |
| 20260902170620 | 19 | 209 | 3.2 | 8.0 | 0.00 | 0.51 | 0.51 | 96 | |
| 20260902170115 | 20 | 24 | 4.8 | 12.9 | 0.00 | 0.51 | 0.51 | 96 | |
| 20260902165614 | 20 | 352 | 1.6 | 8.0 | 0.00 | 0.51 | 0.51 | 96 | |
| 20260902165109 | 20 | 282 | 3.2 | 8.0 | 0.00 | 0.51 | 0.51 | 96 | |
| 20260902164605 | 20 | 176 | 3.2 | 4.8 | 0.00 | 0.51 | 0.51 | 96 | |
| 20260902164103 | 20 | 187 | 3.2 | 8.0 | 0.00 | 0.51 | 0.51 | 96 | |
| 20260902163559 | 20 | 237 | 0.0 | 4.8 | 0.00 | 0.51 | 0.51 | 96 | |
| 20260902163057 | 20 | 269 | 0.0 | 3.2 | 0.00 | 0.51 | 0.51 | 96 | |
| 20260902162551 | 20 | 89 | 0.0 | 8.0 | 0.00 | 0.51 | 0.51 | 96 | |
| 20260902162047 | 20 | 269 | 0.0 | 4.8 | 0.00 | 0.51 | 0.51 | 96 | |
| 20260902161547 | 20 | 322 | 0.0 | 4.8 | 0.00 | 0.51 | 0.51 | 96 | |
| 20260902161043 | 20 | 151 | 0.0 | 3.2 | 0.00 | 0.51 | 0.51 | 96 | |
| 20260902160538 | 20 | 219 | 0.0 | 3.2 | 0.00 | 0.51 | 0.51 | 96 | |
| 20260902160033 | 20 | 84 | 0.0 | 4.8 | 0.00 | 0.51 | 0.51 | 96 | |
| 20260902155527 | 20 | 197 | 4.8 | 6.4 | 0.13 | 0.51 | 0.51 | 96 | |
| 20260902155026 | 20 | 153 | 1.6 | 4.8 | 0.18 | 0.51 | 0.51 | 96 | |
| 20260902154521 | 20 | 130 | 1.6 | 8.0 | 0.23 | 0.51 | 0.51 | 96 | |
| 20260902154016 | 20 | 221 | 1.6 | 6.4 | 0.18 | 0.48 | 0.48 | 96 | |
| 20260902153514 | 20 | 22 | 0.0 | 4.8 | 0.13 | 0.46 | 0.46 | 96 | |
| 20260902153010 | 20 | 89 | 0.0 | 4.8 | 0.13 | 0.46 | 0.46 | 96 | |
| 20260902152506 | 20 | 141 | 3.2 | 6.4 | 0.30 | 0.43 | 0.43 | 96 | |
| 20260902152001 | 20 | 129 | 0.0 | 9.7 | 0.23 | 0.43 | 0.43 | 96 | |
| 20260902151457 | 20 | 136 | 3.2 | 3.2 | 0.13 | 0.38 | 0.38 | 96 | |
| 20260902150956 | 20 | 250 | 3.2 | 4.8 | 0.18 | 0.38 | 0.38 | 96 | |
| 20260902150453 | 20 | 229 | 4.8 | 4.8 | 0.18 | 0.38 | 0.38 | 96 | |
| 20260902145952 | 20 | 137 | 1.6 | 4.8 | 0.05 | 0.36 | 0.36 | 96 | |
| 20260902145447 | 20 | 243 | 6.4 | 8.0 | 0.05 | 0.33 | 0.33 | 96 | |
| 20260902144942 | 20 | 216 | 4.8 | 4.8 | 0.05 | 0.33 | 0.33 | 96 | |
| 20260902144438 | 20 | 209 | 0.0 | 3.2 | 0.18 | 0.33 | 0.33 | 96 | |
| 20260902143938 | 20 | 234 | 0.0 | 4.8 | 0.79 | 0.33 | 0.33 | 96 | |
| 20260902143433 | 20 | 310 | 0.0 | 1.6 | 0.84 | 0.25 | 0.25 | 96 | |
| 20260902142928 | 20 | 124 | 0.0 | 3.2 | 0.66 | 0.18 | 0.18 | 96 | |
| 20260902142425 | 20 | 227 | 3.2 | 4.8 | 0.43 | 0.13 | 0.13 | 96 | |
| 20260902141920 | 20 | 235 | 3.2 | 4.8 | 0.36 | 0.08 | 0.08 | 96 | |
| 20260902141415 | 20 | 129 | 0.0 | 3.2 | 0.13 | 0.03 | 0.03 | 96 | |
| 20260902140914 | 20 | 246 | 3.2 | 4.8 | 0.00 | 0.00 | 0.00 | 96 | |
| 20260902140410 | 20 | 246 | 6.4 | 8.0 | 0.00 | 0.00 | 0.00 | 96 | |
| 20260902135904 | 20 | 196 | 1.6 | 8.0 | 0.00 | 0.00 | 0.00 | 96 | |
| 20260902135400 | 20 | 146 | 4.8 | 6.4 | 0.00 | 0.00 | 0.00 | 96 | |
| 20260902134858 | 20 | 234 | 1.6 | 4.8 | 0.00 | 0.00 | 0.00 | 96 | |
| 20260902134355 | 20 | 182 | 3.2 | 8.0 | 0.00 | 0.00 | 0.00 | 96 | |
| 20260902133854 | 21 | 179 | 3.2 | 6.4 | 0.00 | 0.00 | 0.00 | 96 | |
| 20260902133349 | 21 | 232 | 3.2 | 4.8 | 0.00 | 0.00 | 0.00 | 96 | |
| 20260902132844 | 21 | 208 | 3.2 | 8.0 | 0.00 | 0.00 | 0.00 | 96 | |
| 20260902132339 | 21 | 195 | 4.8 | 8.0 | 0.00 | 0.00 | 0.00 | 96 | |
| 20260902131835 | 21 | 260 | 4.8 | 8.0 | 0.00 | 0.00 | 0.00 | 96 | |
| 20260902131332 | 21 | 235 | 4.8 | 6.4 | 0.00 | 0.00 | 0.00 | 96 | |
| 20260902130830 | 21 | 245 | 1.6 | 4.8 | 0.00 | 0.00 | 0.00 | 96 | |
| 20260902130327 | 21 | 244 | 3.2 | 4.8 | 0.00 | 0.00 | 0.00 | 96 | |
| 20260902125821 | 21 | 198 | 1.6 | 4.8 | 0.00 | 0.00 | 0.00 | 96 | |
| 20260902125317 | 21 | 191 | 3.2 | 4.8 | 0.00 | 0.00 | 0.00 | 96 | |
| 20260902124813 | 21 | 200 | 0.0 | 4.8 | 0.00 | 0.00 | 0.00 | 96 | |
| 20260902124309 | 21 | 231 | 1.6 | 4.8 | 0.00 | 0.00 | 0.00 | 96 | |
| 20260902123804 | 20 | 157 | 3.2 | 4.8 | 0.00 | 0.00 | 0.00 | 96 | |
| 20260902123300 | 20 | 151 | 1.6 | 3.2 | 0.00 | 0.00 | 0.00 | 96 | |
| 20260902122759 | 20 | 209 | 1.6 | 3.2 | 0.00 | 0.00 | 0.00 | 96 | |
| 20260902122255 | 20 | 241 | 0.0 | 1.6 | 0.00 | 0.00 | 0.00 | 96 | |
| 20260902121754 | 20 | 136 | 1.6 | 4.8 | 0.00 | 0.00 | 0.00 | 96 | |
| 20260902121250 | 20 | 199 | 1.6 | 1.6 | 0.00 | 0.00 | 0.00 | 96 | |
| 20260902120745 | 20 | 129 | 0.0 | 1.6 | 0.00 | 0.00 | 0.00 | 96 | |
| 20260902120242 | 20 | 169 | 0.0 | 3.2 | 0.00 | 0.00 | 0.00 | 96 | |
| 20260902115742 | 20 | 243 | 3.2 | 4.8 | 0.00 | 0.00 | 0.00 | 96 | |
| 20260902115238 | 20 | 162 | 3.2 | 4.8 | 0.00 | 0.00 | 0.00 | 96 | |
| 20260902114734 | 20 | 150 | 1.6 | 3.2 | 0.00 | 0.00 | 0.00 | 96 | |
| 20260902114230 | 20 | 237 | 0.0 | 6.4 | 0.00 | 0.00 | 0.00 | 96 | |
| 20260902113724 | 20 | 201 | 3.2 | 8.0 | 0.00 | 0.00 | 0.00 | 96 | |
| 20260902113219 | 20 | 217 | 0.0 | 4.8 | 0.00 | 0.00 | 0.00 | 96 | |
| 20260902112718 | 20 | 147 | 0.0 | 1.6 | 0.00 | 0.00 | 0.00 | 96 |